This is the latest recevied weather packets stored in our database for station/object DG8RAD-1. If no packets are shown the sender has not sent any weather packets the latest 10 day(s).
| Time | Temp. | Humidity | Pressure | Rain* | Wind** | Luminosity | Snow |
|---|---|---|---|---|---|---|---|
| 1788453021 | 36.67° C | 24% | 1023 hPa | 0 mm | - | - | - |
| 1788452188 | 37.22° C | 23% | 1023 hPa | 0 mm | - | - | - |
| 1788451208 | -12.22° C | - | - | - | - | - | - |
| 1788449408 | -12.22° C | - | - | - | - | - | - |
| 1788448508 | -12.22° C | - | - | - | - | - | - |
| 1788447605 | -12.22° C | - | - | - | - | - | - |
| 1788445805 | -12.22° C | - | - | - | - | - | - |
| 1788444913 | 37.22° C | 17% | 1023 hPa | 0 mm | - | - | - |
| 1788442225 | 34.44° C | 21% | 1024 hPa | 0 mm | - | - | - |
| 1788441309 | 33.89° C | 24% | 1024 hPa | 0 mm | - | - | - |
| 1788440417 | 33.89° C | 24% | 1024 hPa | 0 mm | - | - | - |
| 1788439514 | 33.89° C | 23% | 1024 hPa | 0 mm | - | - | - |
| 1788437713 | 33.89° C | 24% | 1024 hPa | 0 mm | - | - | - |
| 1788436807 | 33.33° C | 24% | 1024 hPa | 0 mm | - | - | - |
| 1788435913 | 33.33° C | 25% | 1024 hPa | 0 mm | - | - | - |
| 1788435008 | 33.33° C | 25% | 1024 hPa | 0 mm | - | - | - |
| 1788434106 | 32.78° C | 25% | 1024 hPa | 0 mm | - | - | - |
| 1788433205 | 32.22° C | 26% | 1024 hPa | 0 mm | - | - | - |
| 1788432306 | 32.22° C | 27% | 1024 hPa | 0 mm | - | - | - |
| 1788431407 | 31.67° C | 28% | 1024 hPa | 0 mm | - | - | - |
| 1788430521 | 31.67° C | 28% | 1024 hPa | 0 mm | - | - | - |
| 1788429606 | 31.11° C | 28% | 1024 hPa | 0 mm | - | - | - |
| 1788428712 | 30.56° C | 28% | 1025 hPa | 0 mm | - | - | - |
| 1788427805 | 30.56° C | 30% | 1025 hPa | 0 mm | - | - | - |
| 1788426907 | 30° C | 30% | 1025 hPa | 0 mm | - | - | - |
* Rain latest hour (hover to see other rain measurements)
** Current wind speed in m/s (hover to see current wind gust speed)